Weather History for Shemya, AK

Change the Weather History Date:

Saturday, November 3, 2012

  Actual Average Record
Temperature  
Mean Temperature 38 °F -  
Max Temperature 42 °F 42 °F 51 °F (2003)
Min Temperature 33 °F 36 °F 29 °F (1960)
Degree Days  
Heating Degree Days 28    
Moisture  
Dew Point 32 °F    
Average Humidity 81    
Maximum Humidity 93    
Minimum Humidity 65    
Precipitation  
Precipitation 0.00 in - - ()
Sea Level Pressure  
Sea Level Pressure 30.30 in    
Wind  
Wind Speed 6 mph (NW)    
Max Wind Speed 10 mph    
Max Gust Speed -    
Visibility 10 miles    
Events Rain    
Averages and records for this station are not official NWS values.
T = Trace of Precipitation, MM = Missing Value Source: NWS Daily Summary

Daily Weather History Graph

Daily Weather History Graph

Search for Another Location

Airport:

Trip Planner

Search our weather history database for the weather conditions in past years. The results will help you decide how hot, cold, wet, or windy it might be!

Date:

Astronomy

Nov. 02, 2012 Rise Set
Actual Time 10:23 AM HADT 7:49 PM HADT
Civil Twilight 9:47 AM HADT 8:26 PM HADT
Nautical Twilight 9:06 AM HADT 9:06 PM HADT
Astronomical Twilight 8:26 AM HADT 9:46 PM HADT
Moon 11:32 PM HADT (11/3) 2:54 PM HADT (11/3)
Length of Visible Light 10h 38m
Length of Day
9h 25m
Waning Gibbous, 79% of the Moon is Illuminated
Nov 3
Waning Gibbous
Nov 6
Last Quarter
Nov 13
New
Nov 20
First Quarter
Nov 28
Full

Hourly Weather History & Observations

Time (HADT) Temp. Windchill Dew Point Humidity Pressure Visibility Wind Dir Wind Speed Gust Speed Precip Events Conditions
12:06 AM 35.6 °F 29.2 °F 30.2 °F 81% 30.34 in 10.0 mi North 8.1 mph - N/A   Mostly Cloudy
12:35 AM 35.6 °F 29.9 °F 30.2 °F 81% 30.34 in 10.0 mi NNW 6.9 mph - N/A   Mostly Cloudy
12:56 AM 35.1 °F 28.6 °F 30.0 °F 82% 30.34 in 10.0 mi NNW 8.1 mph - N/A   Partly Cloudy
1:56 AM 35.1 °F 27.9 °F 30.9 °F 85% 30.33 in 10.0 mi WNW 9.2 mph - N/A   Clear
2:15 AM 35.6 °F 29.9 °F 32.0 °F 87% 30.33 in 10.0 mi WNW 6.9 mph - N/A   Mostly Cloudy
2:56 AM 37.0 °F 31.0 °F 32.0 °F 82% 30.33 in 10.0 mi North 8.1 mph - N/A Rain Light Rain
3:08 AM 37.4 °F 32.8 °F 32.0 °F 81% 30.33 in 10.0 mi NNW 5.8 mph - N/A Rain Light Rain
3:56 AM 37.0 °F - 30.9 °F 79% 30.33 in 10.0 mi Calm Calm - N/A   Overcast
4:56 AM 36.0 °F 31.1 °F 30.9 °F 82% 30.32 in 10.0 mi NW 5.8 mph - N/A   Mostly Cloudy
5:16 AM 35.6 °F 28.6 °F 32.0 °F 87% 30.33 in 10.0 mi WNW 9.2 mph - N/A   Mostly Cloudy
5:30 AM 35.6 °F 30.7 °F 33.8 °F 93% 30.32 in 10.0 mi WNW 5.8 mph - N/A   Overcast
5:44 AM 35.6 °F 30.7 °F 32.0 °F 87% 30.32 in 10.0 mi WNW 5.8 mph - N/A   Mostly Cloudy
5:56 AM 35.1 °F 30.1 °F 30.9 °F 85% 30.32 in 10.0 mi WNW 5.8 mph - N/A   Mostly Cloudy
6:21 AM 35.6 °F 29.2 °F 33.8 °F 93% 30.32 in 10.0 mi WNW 8.1 mph - N/A   Overcast
6:56 AM 36.0 °F 32.1 °F 32.0 °F 86% 30.31 in 10.0 mi West 4.6 mph - N/A   Mostly Cloudy
7:08 AM 35.6 °F 30.7 °F 33.8 °F 93% 30.31 in 10.0 mi West 5.8 mph - N/A   Mostly Cloudy
7:27 AM 35.6 °F 30.7 °F 33.8 °F 93% 30.31 in 10.0 mi West 5.8 mph - N/A   Overcast
7:51 AM 35.6 °F 28.0 °F 33.8 °F 93% 30.31 in 10.0 mi WNW 10.4 mph - N/A   Mostly Cloudy
7:56 AM 36.0 °F 30.3 °F 33.1 °F 89% 30.31 in 10.0 mi NW 6.9 mph - N/A Rain Light Rain
8:56 AM 36.0 °F 29.6 °F 33.1 °F 89% 30.30 in 10.0 mi NW 8.1 mph - N/A   Overcast
9:13 AM 35.6 °F 30.7 °F 30.2 °F 81% 30.30 in 10.0 mi NW 5.8 mph - N/A   Scattered Clouds
9:36 AM 35.6 °F - 33.8 °F 93% 30.29 in 10.0 mi Calm Calm - N/A Rain Light Rain
9:56 AM 37.0 °F - 33.1 °F 86% 30.30 in 10.0 mi Calm Calm - N/A   Overcast
10:37 AM 37.4 °F 33.8 °F 33.8 °F 87% 30.30 in 10.0 mi NNW 4.6 mph - N/A   Mostly Cloudy
10:56 AM 35.1 °F 31.0 °F 30.9 °F 85% 30.30 in 10.0 mi WNW 4.6 mph - N/A   Partly Cloudy
11:39 AM 37.4 °F - 32.0 °F 81% 30.30 in 10.0 mi Calm Calm - N/A   Mostly Cloudy
11:56 AM 39.0 °F 34.8 °F 32.0 °F 76% 30.30 in 10.0 mi North 5.8 mph - N/A   Mostly Cloudy
12:11 PM 39.2 °F 35.9 °F 30.2 °F 70% 30.30 in 10.0 mi North 4.6 mph - N/A   Scattered Clouds
12:56 PM 39.9 °F - 32.0 °F 73% 30.30 in 10.0 mi Calm Calm - N/A   Mostly Cloudy
1:56 PM 41.0 °F 37.1 °F 33.1 °F 73% 30.30 in 10.0 mi North 5.8 mph - N/A   Scattered Clouds
2:36 PM 41.0 °F 37.1 °F 33.8 °F 76% 30.29 in 10.0 mi NNW 5.8 mph - N/A   Mostly Cloudy
2:56 PM 39.9 °F 35.1 °F 33.1 °F 77% 30.30 in 10.0 mi NW 6.9 mph - N/A   Overcast
3:33 PM 39.2 °F - 32.0 °F 75% 30.28 in 10.0 mi Calm Calm - N/A   Scattered Clouds
3:56 PM 41.0 °F - 34.0 °F 76% 30.28 in 10.0 mi Calm Calm - N/A   Scattered Clouds
4:56 PM 41.0 °F 39.0 °F 32.0 °F 70% 30.28 in 10.0 mi North 3.5 mph - N/A   Mostly Cloudy
5:56 PM 42.1 °F 40.2 °F 30.9 °F 65% 30.27 in 10.0 mi North 3.5 mph - N/A   Partly Cloudy
6:17 PM 41.0 °F 38.0 °F 32.0 °F 70% 30.27 in 10.0 mi North 4.6 mph - N/A   Overcast
6:44 PM 37.4 °F - 32.0 °F 81% 30.27 in 10.0 mi Calm Calm - N/A   Scattered Clouds
6:56 PM 37.0 °F - 32.0 °F 82% 30.27 in 10.0 mi Calm Calm - N/A   Clear
7:56 PM 34.0 °F - 28.9 °F 82% 30.27 in 10.0 mi Calm Calm - N/A   Clear
8:56 PM 33.1 °F - 28.9 °F 85% 30.28 in 10.0 mi Calm Calm - N/A   Partly Cloudy
9:29 PM 35.6 °F - 30.2 °F 81% 30.28 in 10.0 mi Calm Calm - N/A   Mostly Cloudy
9:56 PM 35.1 °F - 30.9 °F 85% 30.29 in 10.0 mi Calm Calm - N/A   Overcast
10:56 PM 39.0 °F - 32.0 °F 76% 30.29 in 10.0 mi Calm Calm - N/A   Overcast
11:31 PM 37.4 °F - 30.2 °F 75% 30.28 in 10.0 mi Calm Calm - N/A   Overcast
11:56 PM 37.0 °F 33.3 °F 30.9 °F 79% 30.28 in 10.0 mi East 4.6 mph - N/A   Overcast